Regional Weather Roundup
Issued by NWS

Home | Current Version | Previous Version | Text Only | Print | Product List | Glossary On
Versions: 1 2 3 4 5 6 7 8 9 10 11 12 13 14 15 16 17 18 19 20 21 22 23 24 25 26 27 28 29 30 31 32 33 34 35 36 37 38 39 40 41 42 43 44 45 46 47 48 49 50
000
ASUS43 KTOP 180308
RWRKS

WEATHER ROUNDUP FOR KANSAS
NATIONAL WEATHER SERVICE GOODLAND KS
900 PM CST WED DEC 17 2014

NOTE:  "FAIR" INDICATES FEW OR NO CLOUDS BELOW 12,000 FEET WITH NO
SIGNIFICANT WEATHER AND/OR OBSTRUCTIONS TO VISIBILITY.

KSZ001>006-013>018-027>032-041>047-180400-
NORTHWEST KANSAS

CITY           SKY/WX    TMP DP  RH WIND       PRES   REMARKS
GOODLAND       FOG       24  23  96 E8        30.05S VSB 1/2
HAYS           CLOUDY    28  19  69 NE9       30.13S
HILL CITY      CLOUDY    27  22  81 E8        30.14S
RUSSELL        LGT SNOW  27  26  96 NE8       30.14S FOG
$$

KSZ061>065-074>080-084>089-180400-
SOUTHWEST KANSAS

CITY           SKY/WX    TMP DP  RH WIND       PRES   REMARKS
DODGE CITY     LGT SNOW  30  28  92 SE12      30.07R FOG     WCI  20
ELKHART          N/A     31  23  72 NW7         N/A
GARDEN CITY    CLOUDY    30  30 100 E10       30.05R FOG     WCI  21
GREAT BEND     CLOUDY    28  25  86 SE7       30.14R
LIBERAL        CLOUDY    36  30  80 SE10      30.02F WCI  28
PRATT          LGT SNOW  30  30 100 SE8       30.12S
$$

KSZ066>073-081>083-090>101-180400-
SOUTHEAST KANSAS

CITY           SKY/WX    TMP DP  RH WIND       PRES   REMARKS
CHANUTE        CLOUDY    31  29  92 NE7       30.22S
COFFEYVILLE    MIX PCPN  32  31  96 E8        30.22S FOG
HUTCHINSON     LGT SNOW  31  28  89 E5        30.17R FOG
MEDICINE LODGE   N/A     31  30  96 E6        30.14R
NEWTON         CLOUDY    28  23  80 E9        30.18R
PARSONS        LGT RAIN  33  31  92 E6        30.23S FOG
WICHITA INTL   LGT SNOW  31  28  89 E9        30.17S FOG
WICHITA JABRA  LGT SNOW  29  27  92 E7        30.17S FOG
WICHITA MCCONL CLOUDY    30  28  93 E8        30.18R FOG
WINFIELD       CLOUDY    32  31  96 E6        30.20R FOG
$$

KSZ007>012-019>026-033>040-048>060-102>105-180400-
NORTHEAST KANSAS

CITY           SKY/WX    TMP DP  RH WIND       PRES   REMARKS
CONCORDIA      CLOUDY    27  20  75 SE8       30.20F
EMPORIA        LGT SNOW  28  27  96 E6        30.21F FOG
LAWRENCE       CLOUDY    30  22  72 E6        30.26F
MANHATTAN      CLOUDY    29  22  75 E7        30.23S
MARYSVILLE     CLOUDY    28  21  74 E6        30.23F
OLATHE IND     CLOUDY    30  23  75 SE9       30.25S
OLATHE EXE     CLOUDY    30  22  72 SE6       30.24S
SALINA         LGT SNOW  29  26  89 E9        30.19F FOG
TOPEKA BILLARD CLOUDY    31  22  69 E5        30.26R
TOPEKA FORBES  CLOUDY    31  23  72 E6        30.24R
$$


USA.gov is the U.S. government's official web portal to all federal, state and local government web resources and services.